TimeEDT,TemperatureF,Dew PointF,Humidity,Sea Level PressureIn,VisibilityMPH,Wind Direction,Wind SpeedMPH,Gust SpeedMPH,PrecipitationIn,Events,Conditions,WindDirDegrees,DateUTC
12:54 AM,35.1,30.9,85,30.17,10.0,Calm,Calm,-,0.00,,Overcast,0,2013-04-12 04:54:00
1:54 AM,34.0,30.9,89,30.17,10.0,Calm,Calm,-,0.00,Rain,Light Rain,0,2013-04-12 05:54:00
2:54 AM,34.0,30.9,89,30.17,7.0,Calm,Calm,-,0.01,Rain,Light Rain,0,2013-04-12 06:54:00
3:54 AM,33.1,30.9,92,30.18,5.0,WSW,3.5,-,0.04,Rain,Light Rain,240,2013-04-12 07:54:00
4:54 AM,33.1,28.9,85,30.17,10.0,Calm,Calm,-,0.02,,Overcast,0,2013-04-12 08:54:00
5:54 AM,33.1,28.9,85,30.18,9.0,Calm,Calm,-,0.02,Rain,Light Rain,0,2013-04-12 09:54:00
6:23 AM,32.0,28.4,87,30.16,8.0,East,6.9,-,0.00,,Overcast,90,2013-04-12 10:23:00
6:54 AM,32.0,26.1,79,30.18,10.0,ENE,8.1,-,0.00,,Overcast,70,2013-04-12 10:54:00
7:54 AM,30.9,26.1,82,30.17,7.0,East,5.8,-,0.00,,Overcast,80,2013-04-12 11:54:00
8:54 AM,30.9,25.0,79,30.15,10.0,Calm,Calm,-,N/A,,Overcast,0,2013-04-12 12:54:00
9:54 AM,30.9,24.1,76,30.11,9.0,ESE,10.4,18.4,N/A,,Overcast,110,2013-04-12 13:54:00
10:33 AM,30.2,24.8,80,30.08,2.0,ESE,6.9,-,0.00,,Overcast,120,2013-04-12 14:33:00
10:40 AM,30.2,26.6,86,30.07,1.5,East,5.8,-,0.00,,Overcast,90,2013-04-12 14:40:00
10:54 AM,30.0,26.1,85,30.09,1.8,ESE,3.5,-,N/A,,Overcast,120,2013-04-12 14:54:00
10:59 AM,30.2,26.6,86,30.06,3.0,Calm,Calm,-,N/A,,Overcast,0,2013-04-12 14:59:00
11:13 AM,30.2,26.6,86,30.07,1.8,ESE,3.5,-,N/A,Snow,Light Snow,110,2013-04-12 15:13:00
11:54 AM,30.9,27.0,85,30.06,1.5,Variable,3.5,-,N/A,,Overcast,0,2013-04-12 15:54:00
12:24 PM,30.2,26.6,86,30.02,0.8,Calm,Calm,-,N/A,,Overcast,0,2013-04-12 16:24:00
12:36 PM,30.2,28.4,93,30.03,0.5,Calm,Calm,-,N/A,Fog,Light Freezing Fog,0,2013-04-12 16:36:00
12:54 PM,30.0,28.0,92,30.03,1.0,Calm,Calm,-,N/A,,Overcast,0,2013-04-12 16:54:00
1:54 PM,30.9,28.9,92,30.02,1.0,Calm,Calm,-,N/A,,Overcast,0,2013-04-12 17:54:00
2:15 PM,30.2,28.4,93,29.99,1.0,Calm,Calm,-,N/A,Snow,Light Snow,0,2013-04-12 18:15:00
2:27 PM,30.2,28.4,93,29.99,1.2,Calm,Calm,-,N/A,Snow,Light Snow,0,2013-04-12 18:27:00
2:41 PM,32.0,28.4,87,29.98,0.8,Calm,Calm,-,N/A,Snow,Light Snow,0,2013-04-12 18:41:00
2:54 PM,32.0,28.9,88,29.99,1.2,Calm,Calm,-,N/A,Snow,Light Snow,0,2013-04-12 18:54:00
3:08 PM,32.0,28.4,87,29.96,2.5,Calm,Calm,-,N/A,Snow,Light Snow,0,2013-04-12 19:08:00
3:39 PM,32.0,28.4,87,29.95,3.0,Calm,Calm,-,N/A,,Overcast,0,2013-04-12 19:39:00
3:47 PM,32.0,28.4,87,29.95,2.5,Calm,Calm,-,N/A,,Overcast,0,2013-04-12 19:47:00
3:54 PM,32.0,28.9,88,29.96,2.5,Calm,Calm,-,N/A,,Overcast,0,2013-04-12 19:54:00
4:03 PM,32.0,28.4,87,29.94,2.5,Calm,Calm,-,N/A,,Overcast,0,2013-04-12 20:03:00
4:10 PM,32.0,30.2,93,29.94,1.8,Calm,Calm,-,0.00,Snow,Light Snow,0,2013-04-12 20:10:00
4:25 PM,32.0,30.2,93,29.93,1.5,Calm,Calm,-,0.01,Snow,Light Snow,0,2013-04-12 20:25:00
4:49 PM,32.0,30.2,93,29.92,2.0,Calm,Calm,-,0.01,,Overcast,0,2013-04-12 20:49:00
4:54 PM,32.0,30.0,92,29.94,2.5,Calm,Calm,-,0.01,,Overcast,0,2013-04-12 20:54:00
5:14 PM,32.0,30.2,93,29.91,3.0,Calm,Calm,-,0.01,,Overcast,0,2013-04-12 21:14:00
5:28 PM,32.0,30.2,93,29.91,2.0,Calm,Calm,-,0.01,Snow,Light Snow,0,2013-04-12 21:28:00
5:54 PM,32.0,30.9,96,29.93,1.8,Calm,Calm,-,0.01,Snow,Light Snow,0,2013-04-12 21:54:00
6:10 PM,32.0,30.2,93,29.90,2.0,Calm,Calm,-,0.00,,Overcast,0,2013-04-12 22:10:00
6:19 PM,32.0,30.2,93,29.89,1.5,Calm,Calm,-,0.00,Snow,Light Snow,0,2013-04-12 22:19:00
6:30 PM,32.0,30.2,93,29.89,1.5,Calm,Calm,-,0.00,Snow,Light Snow,0,2013-04-12 22:30:00
6:54 PM,32.0,30.0,92,29.91,1.0,Calm,Calm,-,0.01,Snow,Light Snow,0,2013-04-12 22:54:00
7:19 PM,32.0,30.2,93,29.89,1.8,Calm,Calm,-,0.00,Snow,Light Snow,0,2013-04-12 23:19:00
7:29 PM,32.0,30.2,93,29.88,2.0,Calm,Calm,-,0.00,Rain,Light Freezing Rain,0,2013-04-12 23:29:00
7:34 PM,32.0,30.2,93,29.88,2.0,Calm,Calm,-,0.00,Snow,Light Snow,0,2013-04-12 23:34:00
7:45 PM,32.0,30.2,93,29.88,1.5,Calm,Calm,-,0.00,Snow,Light Snow,0,2013-04-12 23:45:00
7:54 PM,32.0,30.0,92,29.90,2.0,Calm,Calm,-,0.00,Snow,Light Snow,0,2013-04-12 23:54:00
8:06 PM,32.0,30.2,93,29.88,3.0,Calm,Calm,-,0.00,Snow,Light Snow,0,2013-04-13 00:06:00
8:14 PM,32.0,30.2,93,29.88,2.0,Calm,Calm,-,0.00,Snow,Light Snow,0,2013-04-13 00:14:00
8:47 PM,32.0,30.2,93,29.88,2.5,North,3.5,-,0.00,Snow,Light Snow,350,2013-04-13 00:47:00
8:54 PM,32.0,30.0,92,29.91,3.0,NNW,3.5,-,0.00,Snow,Light Snow,340,2013-04-13 00:54:00
9:11 PM,32.0,30.2,93,29.88,2.5,Calm,Calm,-,0.00,,Overcast,0,2013-04-13 01:11:00
9:24 PM,32.0,30.2,93,29.88,3.0,Calm,Calm,-,0.00,,Overcast,0,2013-04-13 01:24:00
9:47 PM,32.0,30.2,93,29.87,4.0,Calm,Calm,-,0.00,,Overcast,0,2013-04-13 01:47:00
9:54 PM,32.0,30.0,92,29.89,4.0,Calm,Calm,-,0.00,,Overcast,0,2013-04-13 01:54:00
10:42 PM,32.0,30.2,93,29.87,4.0,Calm,Calm,-,N/A,,Overcast,0,2013-04-13 02:42:00
10:54 PM,32.0,30.0,92,29.89,4.0,Calm,Calm,-,N/A,,Overcast,0,2013-04-13 02:54:00
11:31 PM,32.0,30.2,93,29.86,4.0,North,3.5,-,N/A,,Overcast,10,2013-04-13 03:31:00
11:54 PM,32.0,30.0,92,29.89,4.0,NNE,4.6,-,N/A,,Overcast,30,2013-04-13 03:54:00